Home   Weather   Minas   Past weeks

Flag for Uruguay Past Weather in Minas, Uruguay — Yesterday and Last 2 Weeks

Now
48 °F

Passing clouds.


Feels Like: 43 °F
Forecast: 38 / 64 °F
Wind: 12 mph from Southwest

Location: Capitan Corbeta

Current Time: Sep 25, 2016 at 12:45:31 AM

Latest Report: Sep 25, 2016 at 12:00 AM


Visibility: N/A

Pressure: 30.27 "Hg

Humidity: 87%

Dew Point: 45 °F

Location of MinasLocation

Past Weather in Minas — Graph

°F

Minas Temperature Yesterday

Maximum temperature yesterday: 61 °F (at 9:00 AM)
Minimum temperature yesterday: 46 °F (at 7:00 AM)
Average temperature yesterday: 50 °F

High & Low Weather Summary for the Past Weeks

 TemperatureHumidityPressure
High77 °F (Sep 22, 2:00 PM)100% (Sep 12, 7:00 PM)30.30 "Hg (Sep 12, 7:00 PM)
Low41 °F (Sep 15, 11:00 PM)46% (Sep 16, 2:00 PM)29.36 "Hg (Sep 13, 8:00 PM)
Average56 °F82%30.03 "Hg
* Reported Sep 9 11:00 PM — Sep 24 11:00 PM, Minas, Weather by CustomWeather, © 2016

Note: Actual official high and low records may vary slightly from our data, if they occured in-between our weather recording intervals... More about our weather records

Advertising

Minas Weather History for the Previous 24 Hours

Scroll right to see more
 ConditionsComfort  
Time TempWeatherWind HumidityBarometerVisibility
11:00 PM
Sat, Sep 24
46 °FPassing clouds.7 mph87%30.27 "HgN/A
10:00 PM46 °FPassing clouds.17 mph87%30.27 "HgN/A
9:00 PM48 °FPassing clouds.12 mph82%30.27 "HgN/A
8:00 PM48 °FPassing clouds.18 mph82%30.27 "HgN/A
7:00 PM48 °FPassing clouds.18 mph82%30.27 "HgN/A
6:00 PM50 °FBroken clouds.21 mph76%30.27 "HgN/A
5:00 PM50 °FPartly sunny.16 mph76%30.27 "HgN/A
4:00 PM50 °FPartly sunny.23 mph76%30.27 "HgN/A
3:00 PM52 °FPartly sunny.23 mph72%30.27 "HgN/A
2:00 PM54 °FPartly sunny.25 mph67%30.27 "HgN/A
1:00 PM54 °FBroken clouds.28 mph67%30.27 "HgN/A
12:00 PM54 °FBroken clouds.22 mph67%30.27 "HgN/A
11:00 AM52 °FPartly sunny.26 mph72%30.27 "HgN/A
10:00 AM52 °FPartly sunny.23 mph72%30.30 "HgN/A
9:00 AM61 °FPartly sunny.29 mph48%30.27 "HgN/A
8:00 AM48 °FScattered clouds.25 mph76%30.24 "HgN/A
7:00 AM46 °FScattered clouds.25 mph76%30.24 "HgN/A
2:00 AM48 °FPassing clouds.21 mph71%30.24 "HgN/A
1:00 AM48 °FPassing clouds.28 mph71%30.24 "HgN/A
Weather by CustomWeather, © 2016

See weather overviewHow to use our weather pages